Location: Fours
(44.3167°N, 6.7000°E)
Time: 06:45:54
(UTC+00:00)

Cosmos 2218 Rocket - Pass Details

Date: 05 June 2022
Orbit: 956 x 1005 km, 82.9° (Epoch: 03 July)

Event Time Altitude Azimuth Distance (km) Brightness Sun altitude
Rises 02:41:15 0° 343° (NNW) 3,693 7.4 -10.3°
Reaches altitude 10° 02:44:01 10° 333° (NNW) 2,749 6.6 -10.0°
Maximum altitude 02:49:26 32° 274° (W) 1,649 4.9 -9.3°
Drops below altitude 10° 02:54:54 10° 214° (SW) 2,760 5.7 -8.6°
Enters shadow 02:55:03 - 213° (SSW) 2,808 5.8 -8.6°
